Notices

What's New in latest Release from April 7th, 2021:

- Updated Glossary, including Speed of Maximum Gust, and Total Hourly Precipitation

- Updated national and regional climate services offices contacts and prices information

- Addition of station inventory lists for 1981-2010, 1971-2000, and 1961-1990 Normals.

If you haven't already, please take our survey and provide feedback about our website: https://eccc.sondage-survey.ca/f/LanguageSelection.aspx?s=442ca660-fcf1-47c0-95a9-59707d6fd709

Hourly Data Report for November 24, 2020

CARBERRY CS
MANITOBA
Current Station Operator: ECCC - MSC

49°54'20.900" N
99°21'26.800" W
383.50 m
5010547
71170
WZE

Download Data

Hourly Data (November 2020)
Hourly Data Report for November 24, 2020
TIME
LST
Temp Definition
°C
Dew Point Definition
°C
Rel Hum Definition
%
Precip. Amount Definition
mm

Wind Dir Definition
10's deg

Wind Spd Definition
km/h
Visibility Definition
km
Stn Press Definition
kPa
Hmdx Definition


Wind Chill Definition


Weather Definition


00:00 -1.5 -4.4 81 0.0 15 13   96.41   -6 LegendNANA
01:00 -1.5 -3.9 83 0.0 14 9   96.36   -5 LegendNANA
02:00 -1.4 -3.4 86 0.0 14 10   96.31   -5 LegendNANA
03:00 -1.2 -2.4 91 0.0 15 10   96.28   -5 LegendNANA
04:00 -1.0 -1.1 99 0.0 16 9   96.23   -4 LegendNANA
05:00 -1.0 -1.1 100 0.0 19 5   96.23   -3 LegendNANA
06:00 -1.1 -1.1 100 0.0 25 3   96.24   -2 LegendNANA
07:00 -3.8 -3.8 100 0.0 33 8   96.27   -7 LegendNANA
08:00 -4.3 -4.3 100 0.0 29 10   96.32   -8 LegendNANA
09:00 -3.4 -3.4 100 0.0 27 11   96.35   -8 LegendNANA
10:00 -2.5 -4.4 86 0.0 28 19   96.39   -8 LegendNANA
11:00 -2.8 -5.1 84 0.0 28 22   96.42   -9 LegendNANA
12:00 -3.2 -5.7 83 0.0 28 28   96.46   -10 LegendNANA
13:00 -3.9 -6.3 83 0.0 29 28   96.48   -11 LegendNANA
14:00 -4.7 -7.1 83 0.0 28 27   96.50   -12 LegendNANA
15:00 -5.7 -7.6 86 0.0 27 22   96.55   -13 LegendNANA
16:00 -7.0 -9.2 85 0.0 28 22   96.59   -14 LegendNANA
17:00 -7.4 -10.1 81 0.0 29 19   96.61   -14 LegendNANA
18:00 -8.0 -10.7 81 0.0 29 19   96.65   -15 LegendNANA
19:00 -9.8 -12.2 82 0.0 28 9   96.71   -15 LegendNANA
20:00 -9.9 -12.1 84 0.0 28 7   96.66   -14 LegendNANA
21:00 -10.3 -12.0 87 0.0 22 6   96.66   -14 LegendNANA
22:00 -13.2 -14.5 90 0.0 23 3   96.65   -15 LegendNANA
23:00 -11.9 -12.9 92 0.0 21 7   96.63   -16 LegendNANA

Notes on Data Quality.

Legend

  • E = Estimated
  • M = Missing
  • NA = Not Available*
  • [empty] = Indicates an unobserved value
Date modified: